Tracking 30102 objects as of 12-Dec-2024
HD Live streaming from Space Station
objects crossing your sky now

GLOBALSTAR M044

Track GLOBALSTAR M044 now!
10-day predictions
GLOBALSTAR M044 is classified as:


NORAD ID: 25678
Int'l Code: 1999-019C
Perigee: 1,725.9 km
Apogee: 1,738.0 km
Inclination: 52.0 °
Period: 121.0 minutes
Semi major axis: 8102 km
RCS: 2.4818 m2 (large)
Launch date: April 15, 1999
Source: Globalstar (GLOB)
Launch site: TYURATAM MISSILE AND SPACE COMPLEX (TTMTR)
Your satellite tracking list
Your tracking list is empty




NASA's NSSDC Master Catalog

Two Line Element Set (TLE):
1 25678U 99019C   24346.93384661 -.00000047  00000-0  51886-3 0  9998
2 25678  51.9933 164.1016 0007446  49.4427 117.5693 11.90245231149026
Source of the keplerian elements: AFSPC